User: anonymous
Location: Kailua
(21.4020°N, 157.7390°W)
Time: 04:05:48
(UTC-10:00)
Language:

Cosmos 2221 Rocket - Orbit

View from above orbital plane
View from above orbital plane
View from above satellite
View from above satellite

Ground track
Ground track

The orbit data is extracted from the following two-line orbital elements,

1 22237U 92080B   14244.42726624  .00000184  00000-0  22445-4 0  4172
2 22237 082.5155 346.1309 0018404 300.4774 103.1583 14.77890064172795
Epoch (UTC): 01 September 2014 10:15:15
Eccentricity: 0.0018404
inclination: 82.5155°
perigee height: 623 km
apogee height: 649 km
right ascension of ascending node: 346.1309°
argument of perigee: 300.4774°
revolutions per day: 14.77890064
mean anomaly at epoch: 103.1583°
orbit number at epoch: 17279

The dashed part of the orbit path shows where the satellite is in the earth's shadow,  

DLR